WA6MHA-11 Weather Reports


time (UTC)temp
C
wind
direction
speed
KPH
gust
KPH
rain 1hr
cm
rain 24hr
cm
rain mn
cm
humidity
%
barometer
mb
20260905133935 13 274 0.0 0.0 0.00 0.00 0.00 53 1015.1
20260905133533 13 274 0.0 0.0 0.00 0.00 0.00 53 1015.0
20260905133132 13 283 0.0 1.6 0.00 0.00 0.00 53 1014.9
20260905132734 13 297 1.6 1.6 0.00 0.00 0.00 53 1014.9
20260905132328 13 274 0.0 0.0 0.00 0.00 0.00 53 1014.9
20260905131927 13 315 0.0 0.0 0.00 0.00 0.00 53 1014.9
20260905131526 13 310 0.0 0.0 0.00 0.00 0.00 53 1014.8
20260905131125 13 299 0.0 0.0 0.00 0.00 0.00 53 1014.7
20260905130724 13 299 0.0 1.6 0.00 0.00 0.00 53 1014.7
20260905130322 13 310 0.0 0.0 0.00 0.00 0.00 53 1014.8
20260905125921 13 274 0.0 0.0 0.00 0.00 0.00 53 1014.7
20260905125520 13 292 0.0 0.0 0.00 0.00 0.00 53 1014.9
20260905124717 13 274 1.6 1.6 0.00 0.00 0.00 52 1014.8
20260905124317 13 301 0.0 0.0 0.00 0.00 0.00 52 1014.8
20260905123915 13 321 0.0 0.0 0.00 0.00 0.00 52 1014.8
20260905123513 13 326 0.0 0.0 0.00 0.00 0.00 52 1014.7
20260905122716 13 283 0.0 0.0 0.00 0.00 0.00 52 1014.7
20260905121909 13 279 0.0 0.0 0.00 0.00 0.00 52 1014.8
20260905121508 13 274 0.0 0.0 0.00 0.00 0.00 52 1014.9
20260905121106 13 294 0.0 0.0 0.00 0.00 0.00 52 1014.8
20260905120303 13 274 0.0 0.0 0.00 0.00 0.00 52 1014.8
20260905115902 13 279 0.0 0.0 0.00 0.00 0.00 52 1014.8
20260905115501 13 225 0.0 0.0 0.00 0.00 0.00 52 1014.7
20260905115100 13 237 0.0 0.0 0.00 0.00 0.00 52 1014.8
20260905114658 14 227 0.0 0.0 0.00 0.00 0.00 52 1014.8
20260905114257 14 229 0.0 0.0 0.00 0.00 0.00 52 1014.8
20260905113855 14 236 0.0 1.6 0.00 0.00 0.00 52 1014.7
20260905112653 14 274 1.6 1.6 0.00 0.00 0.00 51 1014.8
20260905112250 14 279 0.0 1.6 0.00 0.00 0.00 51 1014.9
20260905111849 14 279 0.0 1.6 0.00 0.00 0.00 51 1014.8
20260905111448 14 270 0.0 1.6 0.00 0.00 0.00 51 1014.9
20260905110244 14 299 0.0 0.0 0.00 0.00 0.00 51 1014.9
20260905105842 14 290 0.0 0.0 0.00 0.00 0.00 51 1014.9
20260905105444 14 339 0.0 0.0 0.00 0.00 0.00 51 1014.9
20260905105041 14 231 0.0 0.0 0.00 0.00 0.00 51 7014.9
20260905104639 14 303 0.0 0.0 0.00 0.00 0.00 50 1014.9
20260905104238 14 303 0.0 0.0 0.00 0.00 0.00 50 1015.0
20260905103837 14 297 0.0 0.0 0.00 0.00 0.00 50 1015.0
20260905103435 14 279 0.0 0.0 0.00 0.00 0.00 50 1015.0
20260905103033 14 283 0.0 0.0 0.00 0.00 0.00 50 1015.0
20260905102231 14 40 0.0 1.6 0.00 0.00 0.00 50 1015.0
20260905101430 14 283 0.0 0.0 0.00 0.00 0.00 50 1015.0
20260905101027 14 274 0.0 0.0 0.00 0.00 0.00 50 1015.0
20260905100627 14 307 0.0 0.0 0.00 0.00 0.00 50 1.0
20260905100225 14 283 0.0 0.0 0.00 0.00 0.00 50 1015.0
20260905095824 14 290 0.0 0.0 0.00 0.00 0.00 50 1015.0
20260905095422 14 283 0.0 0.0 0.00 0.00 0.00 50 1015.1
20260905095022 14 279 0.0 1.6 0.00 0.00 0.00 50 1015.0
20260905094620 14 279 0.0 0.0 0.00 0.00 0.00 49 1015.0
20260905094218 15 279 0.0 0.0 0.00 0.00 0.00 49 1014.9
20260905093015 15 274 0.0 0.0 0.00 0.00 0.00 49 1015.0
20260905092613 15 283 0.0 0.0 0.00 0.00 0.00 49 1015.0
20260905092211 15 283 0.0 0.0 0.00 0.00 0.00 49 1015.0
20260905091810 15 186 0.0 0.0 0.00 0.00 0.00 49 1015.0
20260905091409 15 279 0.0 0.0 0.00 0.00 0.00 49 1015.1
20260905091013 15 274 0.0 0.0 0.00 0.00 0.00 49 1015.1
20260905085804 15 274 0.0 0.0 0.00 0.00 0.00 48 1015.1
20260905085403 15 283 0.0 0.0 0.00 0.00 0.00 48 1015.2
20260905084600 15 303 0.0 0.0 0.00 0.00 0.00 48 1015.2
20260905084200 15 303 0.0 0.0 0.00 0.00 0.00 48 1015.2
20260905083758 15 303 0.0 0.0 0.00 0.00 0.00 48 1015.2
20260905083356 15 303 0.0 0.0 0.00 0.00 0.00 48 1015.2
20260905082955 15 279 0.0 0.0 0.00 0.00 0.00 48 1015.3
20260905082555 16 333 0.0 0.0 0.00 0.00 0.00 48 1015.2
20260905082155 16 337 0.0 0.0 0.00 0.00 0.00 47 1015.2
20260905081752 16 260 0.0 0.0 0.00 0.00 0.00 47 1015.3
20260905081350 16 234 0.0 0.0 0.00 0.00 0.00 47 1015.3
20260905080949 -17 141 0.0 0.0 0.00 0.00 0.00 47
20260905080547 16 283 0.0 1.6 0.00 0.00 0.00 47 1015.2
20260905080305 16 270 0.0 1.6 0.00 0.00 0.00 47 1015.2
20260905080146 16 270 0.0 1.6 0.00 0.00 0.00 47 1015.2
20260905075745 16 279 1.6 1.6 0.00 0.00 0.00 47 1015.2
20260905074943 16 279 1.6 1.6 0.00 0.00 0.00 47 1015.2
20260905074541 16 279 0.0 0.0 0.00 0.00 0.00 47 1015.2
20260905074140 16 346 0.0 0.0 0.00 0.00 0.00 46 1015.2
20260905073738 16 335 0.0 0.0 0.00 0.00 0.00 46 1015.2
20260905073338 16 339 0.0 0.0 0.00 0.00 0.00 46 1015.2
20260905072936 16 292 0.0 0.0 0.00 0.00 0.00 46 1015.2
20260905072535 16 274 0.0 1.6 0.00 0.00 0.00 46 1015.2
20260905072134 16 288 1.6 1.6 0.00 0.00 0.00 46 1015.2
20260905071733 16 310 0.0 0.0 0.00 0.00 0.00 46 1015.2
20260905071331 17 137 0.0 1.6 0.00 0.00 0.00 46 1015.2
20260905070930 17 137 0.0 0.0 0.00 0.00 0.00 46 1015.2
20260905070529 17 270 0.0 1.6 0.00 0.00 0.00 45 1015.2
20260905070127 17 227 0.0 0.0 0.00 0.00 0.00 45 1015.1
20260905065325 17 326 0.0 0.0 0.00 0.00 0.00 45 1015.1
20260905064121 17 137 0.0 0.0 0.00 0.00 0.00 45 1015.1
20260905062910 18 239 0.0 1.6 0.00 0.00 0.00 44 1014.9
20260905062509 18 221 1.6 1.6 0.00 0.00 0.00 44 1014.9
20260905062108 18 236 0.0 1.6 0.00 0.00 0.00 44 1015.0
20260905061306 18 279 0.0 1.6 0.00 0.00 0.00 44 1015.0
20260905060904 18 235 0.0 0.0 0.00 0.00 0.00 44 1015.0
20260905055702 18 321 0.0 0.0 0.00 0.00 0.00 43 1015.0
20260905055259 18 279 0.0 0.0 0.00 0.00 0.00 43 1015.0
20260905054901 18 339 0.0 0.0 0.00 0.00 0.00 43 1015.0
20260905054457 18 324 0.0 0.0 0.00 0.00 0.00 43 1014.9
20260905053654 18 324 0.0 0.0 0.00 0.00 0.00 43 1014.9
20260905053253 18 324 0.0 0.0 0.00 0.00 0.00 43 1014.9
20260905052451 19 330 0.0 0.0 0.00 0.00 0.00 42 1014.9
20260905052049 19 333 0.0 0.0 0.00 0.00 0.00 42 1015.0
20260905051647 19 283 0.0 0.0 0.00 0.00 0.00 42 1014.9
20260905051246 19 243 0.0 1.6 0.00 0.00 0.00 42 1014.9
20260905050845 19 279 1.6 3.2 0.00 0.00 0.00 42 1015.0
20260905050444 19 283 0.0 1.6 0.00 0.00 0.00 42 1014.9
20260905050043 19 279 1.6 3.2 0.00 0.00 0.00 42 1014.9
20260905045240 20 279 4.8 4.8 0.00 0.00 0.00 42 1014.9
20260905044839 20 255 0.0 3.2 0.00 0.00 0.00 41 1014.8
20260905044036 20 274 3.2 4.8 0.00 0.00 0.00 41 1014.8
20260905043635 20 283 3.2 4.8 0.00 0.00 0.00 41 1014.6
20260905043234 20 292 1.6 4.8 0.00 0.00 0.00 41 1014.7
20260905042832 20 270 4.8 4.8 0.00 0.00 0.00 40 1014.6
20260905042431 20 288 1.6 4.8 0.00 0.00 0.00 40 1014.5
20260905042030 20 279 1.6 4.8 0.00 0.00 0.00 40 1014.5
20260905041629 20 274 3.2 4.8 0.00 0.00 0.00 39 1014.5
20260905041227 20 283 3.2 4.8 0.00 0.00 0.00 39 1014.5
20260905040418 20 270 3.2 3.2 0.00 0.00 0.00 38 1014.4
20260905035215 20 274 1.6 3.2 0.00 0.00 0.00 38 1014.3
20260905034814 20 189 0.0 1.6 0.00 0.00 0.00 37 1014.2
20260905034412 20 324 0.0 3.2 0.00 0.00 0.00 37 1014.1
20260905034014 20 301 1.6 1.6 0.00 0.00 0.00 37 1014.1
20260905033610 21 310 0.0 1.6 0.00 0.00 0.00 37 1014.0
20260905033209 21 274 1.6 1.6 0.00 0.00 0.00 36 1014.0
20260905032406 21 292 0.0 0.0 0.00 0.00 0.00 36 1013.9
20260905031603 21 186 0.0 0.0 0.00 0.00 0.00 35 1013.8
20260905030801 22 328 0.0 0.0 0.00 0.00 0.00 35 1013.8
20260905025958 22 274 0.0 0.0 0.00 0.00 0.00 34 1013.7
20260905025155 22 283 0.0 0.0 0.00 0.00 0.00 33 1013.7
20260905024754 23 312 0.0 0.0 0.00 0.00 0.00 33 1013.6
20260905024354 23 339 1.6 1.6 0.00 0.00 0.00 33 1013.6
20260905023551 23 283 0.0 0.0 0.00 0.00 0.00 32 1013.6
20260905023149 24 227 0.0 1.6 0.00 0.00 0.00 31 1013.6
20260905022748 24 186 1.6 3.2 0.00 0.00 0.00 31 1013.5
20260905022347 24 200 0.0 3.2 0.00 0.00 0.00 31 1013.6
20260905021945 24 279 1.6 3.2 0.00 0.00 0.00 30 1013.5
20260905021544 24 215 1.6 6.4 0.00 0.00 0.00 30 1013.5
20260905021143 24 191 3.2 8.0 0.00 0.00 0.00 30 1013.5
20260905020741 25 191 3.2 6.4 0.00 0.00 0.00 29 1013.6
20260905020340 25 209 1.6 4.8 0.00 0.00 0.00 29 1013.6
20260905015939 25 177 3.2 4.8 0.00 0.00 0.00 28 1013.6
20260905015136 26 180 3.2 6.4 0.00 0.00 0.00 28 1013.5
20260905014735 26 167 3.2 8.0 0.00 0.00 0.00 27 1013.6
20260905014334 26 334 1.6 11.3 0.00 0.00 0.00 27 1013.6
20260905013932 26 192 4.8 8.0 0.00 0.00 0.00 26 1013.6
20260905013531 26 135 6.4 9.7 0.00 0.00 0.00 26 1013.6
20260905012729 27 168 4.8 9.7 0.00 0.00 0.00 25 1013.8
20260905011926 27 180 8.0 14.5 0.00 0.00 0.00 24 1013.8
20260905011524 27 155 4.8 14.5 0.00 0.00 0.00 24 1013.7
20260905011123 28 184 8.0 14.5 0.00 0.00 0.00 23 1013.7
20260905010722 28 177 12.9 14.5 0.00 0.00 0.00 23 1013.7
20260905010321 28 191 8.0 17.7 0.00 0.00 0.00 22 1013.7
20260905005518 28 167 8.0 17.7 0.00 0.00 0.00 22 1013.7
20260905005117 28 177 9.7 17.7 0.00 0.00 0.00 22 1013.7
20260905004716 28 186 8.0 17.7 0.00 0.00 0.00 21 1013.8
20260905004315 29 180 6.4 16.1 0.00 0.00 0.00 21 1013.7
20260905003913 29 137 14.5 16.1 0.00 0.00 0.00 21 1013.6
20260905002711 30 171 9.7 14.5 0.00 0.00 0.00 21 1013.7
20260905002308 30 189 11.3 14.5 0.00 0.00 0.00 21 1013.7
20260905000702 30 182 12.9 17.7 0.00 0.00 0.00 22 1013.7
20260905000303 30 177 6.4 14.5 0.00 0.00 0.00 22 1013.6
20260904235901 31 157 8.0 14.5 0.00 0.00 0.00 22 1013.7
20260904235459 31 135 8.0 12.9 0.00 0.00 0.00 22 1013.6
20260904235058 31 177 6.4 19.3 0.00 0.00 0.00 22 1013.7
20260904234657 32 198 4.8 9.7 0.00 0.00 0.00 21 1013.7
20260904234255 31 182 4.8 8.0 0.00 0.00 0.00 22 1013.7
20260904233452 32 182 8.0 16.1 0.00 0.00 0.00 22 1013.7
20260904232650 32 173 11.3 14.5 0.00 0.00 0.00 22 1013.8
20260904232250 32 202 9.7 12.9 0.00 0.00 0.00 22 1013.7
20260904231848 32 135 6.4 14.5 0.00 0.00 0.00 22 1013.8
20260904230644 32 160 12.9 16.1 0.00 0.00 0.00 21 1013.8
20260904230243 32 222 14.5 20.9 0.00 0.00 0.00 22 1013.8
20260904225432 32 193 9.7 16.1 0.00 0.00 0.00 22 1013.9
20260904225031 32 162 8.0 14.5 0.00 0.00 0.00 22 1013.9
20260904224630 32 175 12.9 14.5 0.00 0.00 0.00 22 1013.9
20260904224229 33 177 14.5 17.7 0.00 0.00 0.00 22 1013.9
20260904223828 32 168 8.0 16.1 0.00 0.00 0.00 21 1013.9
20260904222623 33 180 12.9 16.1 0.00 0.00 0.00 22 1013.9
20260904221821 33 191 8.0 11.3 0.00 0.00 0.00 21 1013.8
20260904221420 33 146 3.2 17.7 0.00 0.00 0.00 22 1014.1
20260904221018 33 171 6.4 20.9 0.00 0.00 0.00 22 1014.1
20260904220617 33 192 8.0 12.9 0.00 0.00 0.00 22 1014.1
20260904220216 33 157 8.0 16.1 0.00 0.00 0.00 23 1014.0
20260904215814 33 157 9.7 17.7 0.00 0.00 0.00 23 1014.1
20260904215012 33 198 12.9 22.5 0.00 0.00 0.00 22 1014.1
20260904214611 33 155 9.7 16.1 0.00 0.00 0.00 22 1014.1
20260904214209 33 184 14.5 17.7 0.00 0.00 0.00 22 1014.2
20260904213808 33 193 11.3 17.7 0.00 0.00 0.00 23 1014.2
20260904213407 33 191 12.9 19.3 0.00 0.00 0.00 22 1014.1
20260904212605 32 182 12.9 14.5 0.00 0.00 0.00 23 1014.3
20260904212203 32 170 9.7 19.3 0.00 0.00 0.00 24 1014.2
20260904211401 32 175 12.9 16.1 0.00 0.00 0.00 24 1014.3
20260904210959 32 140 12.9 14.5 0.00 0.00 0.00 24 1014.2
20260904210736 32 132 8.0 17.7 0.00 0.00 0.00 24 1014.2
20260904210559 32 132 8.0 17.7 0.00 0.00 0.00 0.1
20260904210157 32 200 14.5 17.7 0.00 0.00 0.00 24 1014.2
20260904205756 32 51 3.2 16.1 0.00 0.00 0.00 24 1014.2
20260904205354 32 135 14.5 17.7 0.00 0.00 0.00 24 1014.1
20260904204953 33 261 3.2 9.7 0.00 0.00 0.00 24 1014.1
20260904204553 32 191 6.4 14.5 0.00 0.00 0.00 24 1014.2
20260904204151 31 137 4.8 16.1 0.00 0.00 0.00 24 1014.2
20260904203749 31 119 6.4 14.5 0.00 0.00 0.00 24 1014.2
20260904203348 32 135 9.7 16.1 0.00 0.00 0.00 24 1014.2
20260904202144 33 180 4.8 9.7 0.00 0.00 0.00 24 1014.3
20260904201743 32 247 3.2 11.3 0.00 0.00 0.00 25 1014.5
20260904201342 31 81 3.2 19.3 0.00 0.00 0.00 25 1014.5
20260904200940 32 182 9.7 12.9 0.00 0.00 0.00 25 1014.5
20260904195737 28 0 3.2 12.9 0.00 0.00 0.00 25 1014.7
20260904195336 29 137 11.3 14.5 0.00 0.00 0.00 26 1014.8
20260904194934 30 171 9.7 14.5 0.00 0.00 0.00 26 1014.8
20260904194532 29 175 11.3 14.5 0.00 0.00 0.00 26 1014.8
20260904194130 29 114 14.5 19.3 0.00 0.00 0.00 26 1014.7
20260904193730 30 81 4.8 8.0 0.00 0.00 0.00 27 1014.9
20260904193329 30 153 9.7 16.1 0.00 0.00 0.00 27 1015.0
20260904192927 30 157 4.8 11.3 0.00 0.00 0.00 27 1015.0
20260904192526 28 144 8.0 17.7 0.00 0.00 0.00 27 1015.0
20260904192125 29 96 11.3 20.9 0.00 0.00 0.00 27 1015.1
20260904191723 29 110 8.0 16.1 0.00 0.00 0.00 27 1015.1
20260904191322 30 137 4.8 14.5 0.00 0.00 0.00 27 1015.2
20260904190921 30 230 1.6 11.3 0.00 0.00 0.00 27 1015.3
20260904190112 28 135 12.9 16.1 0.00 0.00 0.00 28 1015.4
20260904185711 28 119 12.9 14.5 0.00 0.00 0.00 28 1015.2
20260904184908 28 81 9.7 14.5 0.00 0.00 0.00 28 1015.5
20260904184107 30 40 1.6 8.0 0.00 0.00 0.00 19 1015.5
20260904183706 29 135 11.3 14.5 0.00 0.00 0.00 29 1015.6
20260904182901 30 267 1.6 8.0 0.00 0.00 0.00 29 1015.5
20260904182500 29 90 1.6 14.5 0.00 0.00 0.00 29 1015.6
20260904182059 30 101 6.4 11.3 0.00 0.00 0.00 29 1015.6
20260904181658 30 230 4.8 8.0 0.00 0.00 0.00 29 1015.6
20260904181257 30 200 3.2 9.7 0.00 0.00 0.00 30 1015.6
20260904180902 30 107 4.8 12.9 0.00 0.00 0.00 30 1015.7
20260904180454 30 42 3.2 11.3 0.00 0.00 0.00 30 1015.6
20260904180052 30 189 4.8 11.3 0.00 0.00 0.00 30 1015.7
20260904175651 30 177 1.6 9.7 0.00 0.00 0.00 31 1015.8
20260904175250 30 182 6.4 12.9 0.00 0.00 0.00 31 1015.8
20260904174849 30 191 8.0 11.3 0.00 0.00 0.00 31 1015.6
20260904174046 29 115 1.6 9.7 0.00 0.00 0.00 32 1015.7
20260904173645 28 171 9.7 9.7 0.00 0.00 0.00 32 1015.6
20260904173244 28 164 4.8 9.7 0.00 0.00 0.00 33 1015.6
20260904172843 28 274 4.8 8.0 0.00 0.00 0.00 33 1015.6
20260904172040 27 130 8.0 9.7 0.00 0.00 0.00 34 1015.6
20260904171639 27 119 0.0 8.0 0.00 0.00 0.00 34 1015.6
20260904170836 26 117 1.6 6.4 0.00 0.00 0.00 35 1015.6
20260904170436 26 40 1.6 11.3 0.00 0.00 0.00 36 1015.5
20260904170036 25 135 8.0 12.9 0.00 0.00 0.00 36 1015.4
20260904165632 26 157 9.7 12.9 0.00 0.00 0.00 37 1015.4
20260904165230 25 85 6.4 11.3 0.00 0.00 0.00 37 1015.4
20260904164834 26 137 8.0 8.0 0.00 0.00 0.00 38 1015.3
20260904164029 25 132 1.6 9.7 0.00 0.00 0.00 39 1015.3
20260904163626 25 81 1.6 11.3 0.00 0.00 0.00 39 1015.3
20260904163225 24 87 9.7 12.9 0.00 0.00 0.00 40 1015.3
20260904162823 24 83 11.3 11.3 0.00 0.00 0.00 40 1015.3
20260904162422 24 112 4.8 11.3 0.00 0.00 0.00 41 1015.3
20260904161619 24 78 8.0 12.9 0.00 0.00 0.00 42 1015.3
20260904160415 25 173 1.6 6.4 0.00 0.00 0.00 45 1015.2
20260904155607 23 175 4.8 6.4 0.00 0.00 0.00 46 1015.3
20260904154805 22 83 3.2 8.0 0.00 0.00 0.00 47 1015.3
20260904154403 21 119 6.4 9.7 0.00 0.00 0.00 47 1015.3
20260904154001 21 103 4.8 8.0 0.00 0.00 0.00 47 1015.2
20260904153600 20 99 6.4 9.7 0.00 0.00 0.00 47 1015.3
20260904153159 20 110 4.8 8.0 0.00 0.00 0.00 47 1015.2
20260904152758 21 81 6.4 9.7 0.00 0.00 0.00 48 1015.2
20260904152358 21 94 4.8 8.0 0.00 0.00 0.00 48 1015.2
20260904151956 21 90 6.4 9.7 0.00 0.00 0.00 49 1015.2
20260904151153 21 132 4.8 8.0 0.00 0.00 0.00 50 1015.1
20260904145949 19 137 0.0 4.8 0.00 0.00 0.00 51 1015.1
20260904145548 19 42 0.0 1.6 0.00 0.00 0.00 51 1015.0
20260904144747 19 36 0.0 1.6 0.00 0.00 0.00 52 1014.9
20260904143541 18 315 0.0 1.6 0.00 0.00 0.00 52 1014.9
20260904142340 17 274 0.0 0.0 0.00 0.00 0.00 53 1014.8
20260904141939 16 288 0.0 0.0 0.00 0.00 0.00 53 1014.7
20260904141535 16 182 0.0 0.0 0.00 0.00 0.00 53 1014.6
20260904141134 15 233 0.0 0.0 0.00 0.00 0.00 53 1014.6
20260904140734 15 237 0.0 0.0 0.00 0.00 0.00 53 1014.5
20260904140330 15 232 0.0 0.0 0.00 0.00 0.00 53 1014.6
20260904135929 14 234 0.0 0.0 0.00 0.00 0.00 53 1014.4
20260904135528 14 279 0.0 0.0 0.00 0.00 0.00 53 1014.4
20260904134727 14 308 0.0 0.0 0.00 0.00 0.00 53 1014.3
20260904134325 14 279 0.0 1.6 0.00 0.00 0.00 53 1014.2